Buckeye, AZ

1:35 AM MST on July 19, 2019 (GMT -0700)
Buckeye Municipal

Weather History for KBXK - May, 2019

Change the Weather History Date:

Sunday, May 26, 2019

  Actual Average (WUND) Record (WUND)
Temperature  
Mean Temperature 68 °F -  
Max Temperature 80 °F - - (-1)
Min Temperature 55 °F - - (-1)
Cooling Degree Days 2    
Growing Degree Days 18 (Base 50)    
Moisture  
Dew Point 38 °F    
Average Humidity 29    
Maximum Humidity 41    
Minimum Humidity 23    
Precipitation  
Precipitation 0.00 in - - ()
Sea Level Pressure  
Sea Level Pressure 29.81 in    
Wind  
Wind Speed 10 mph (SSW)    
Max Wind Speed 20 mph    
Max Gust Speed 28 mph    
Visibility 10 miles    
Events      
Averages and records for this station are not official NWS values.
T = Trace of Precipitation, MM = Missing Value Source: NWS Daily Summary

Daily Weather History Graph

Daily Weather History Graph

Search for Another Location

Airport or City:

Astronomy

May. 26, 2019 Rise Set
Actual Time 5:24 AM MST 7:31 PM MST
Civil Twilight 4:56 AM MST 7:59 PM MST
Nautical Twilight 4:21 AM MST 8:34 PM MST
Astronomical Twilight 3:45 AM MST 9:11 PM MST
Moon 1:12 AM MST (5/26) 12:18 PM MST (5/26)
Length of Visible Light 15h 03m
Length of Day
14h 07m
Waning Gibbous, 49% of the Moon is Illuminated
May 26
Waning Gibbous
Jun 3
New
Jun 9
First Quarter
Jun 17
Full
Jun 25
Last Quarter

Hourly Weather History & Observations

Time (MST) Temp. Dew Point Humidity Pressure Visibility Wind Dir Wind Speed Gust Speed Precip Events Conditions
12:15 AM 68.0 °F 30.2 °F 24% 29.76 in 10.0 mi SW 11.5 mph - N/A   Unknown
12:35 AM 69.8 °F 32.0 °F 25% 29.77 in 10.0 mi SSW 10.4 mph - N/A   Unknown
12:55 AM 68.0 °F 32.0 °F 26% 29.77 in 10.0 mi SW 10.4 mph - N/A   Clear
1:15 AM 66.2 °F 30.2 °F 26% 29.77 in 10.0 mi SSW 9.2 mph - N/A   Clear
1:35 AM 66.2 °F 32.0 °F 28% 29.77 in 10.0 mi SW 6.9 mph - N/A   Clear
1:55 AM 66.2 °F 32.0 °F 28% 29.78 in 10.0 mi SW 8.1 mph - N/A   Clear
2:15 AM 62.6 °F 28.4 °F 27% 29.78 in 10.0 mi NW 6.9 mph - N/A   Clear
2:35 AM 64.4 °F 26.6 °F 24% 29.78 in 10.0 mi NW 4.6 mph - N/A   Clear
2:55 AM 64.4 °F 26.6 °F 24% 29.78 in 10.0 mi WNW 3.5 mph - N/A   Clear
3:15 AM 66.2 °F 28.4 °F 24% 29.78 in 10.0 mi WSW 4.6 mph - N/A   Clear
3:35 AM 64.4 °F 28.4 °F 26% 29.78 in 10.0 mi SW 3.5 mph - N/A   Clear
3:55 AM 59.0 °F 26.6 °F 29% 29.78 in 10.0 mi NW 4.6 mph - N/A   Clear
4:15 AM 59.0 °F 26.6 °F 29% 29.78 in 10.0 mi NNE 4.6 mph - N/A   Clear
4:35 AM 57.2 °F 26.6 °F 31% 29.77 in 10.0 mi North 6.9 mph - N/A   Clear
4:55 AM 57.2 °F 26.6 °F 31% 29.77 in 10.0 mi North 6.9 mph - N/A   Clear
5:15 AM 55.4 °F 32.0 °F 41% 29.78 in 10.0 mi NE 4.6 mph - N/A   Clear
5:35 AM 57.2 °F 28.4 °F 33% 29.79 in 10.0 mi East 3.5 mph - N/A   Clear
5:55 AM 59.0 °F 32.0 °F 36% 29.80 in 10.0 mi Calm Calm - N/A   Clear
6:15 AM 60.8 °F 30.2 °F 31% 29.80 in 10.0 mi Calm Calm - N/A   Clear
6:35 AM 64.4 °F 32.0 °F 30% 29.81 in 3.0 mi Calm Calm - N/A   Clear
6:55 AM 66.2 °F 32.0 °F 28% 29.82 in 9.0 mi West 3.5 mph - N/A   Clear
7:15 AM 68.0 °F 32.0 °F 26% 29.82 in 10.0 mi SSW 3.5 mph - N/A   Clear
7:35 AM 68.0 °F 33.8 °F 28% 29.82 in 10.0 mi SSW 5.8 mph - N/A   Clear
7:55 AM 69.8 °F 37.4 °F 31% 29.83 in 10.0 mi SW 8.1 mph - N/A   Clear
8:15 AM 71.6 °F 39.2 °F 31% 29.84 in 10.0 mi SSW 12.7 mph - N/A   Mostly Cloudy
8:35 AM 71.6 °F 39.2 °F 31% 29.84 in 10.0 mi SSW 10.4 mph - N/A   Mostly Cloudy
8:55 AM 71.6 °F 39.2 °F 31% 29.84 in 10.0 mi SSW 10.4 mph - N/A   Partly Cloudy
9:15 AM 71.6 °F 37.4 °F 29% 29.84 in 10.0 mi Calm Calm - N/A   Clear
9:35 AM 73.4 °F 37.4 °F 27% 29.85 in 10.0 mi SSW 10.4 mph - N/A   Clear
9:55 AM 73.4 °F 39.2 °F 29% 29.84 in 10.0 mi SSW 8.1 mph - N/A   Clear
10:15 AM 75.2 °F 41.0 °F 29% 29.85 in 9.0 mi South 17.3 mph 21.9 mph N/A   Clear
10:35 AM 75.2 °F 41.0 °F 29% 29.84 in 10.0 mi SW 17.3 mph 25.3 mph N/A   Clear
10:55 AM 75.2 °F 42.8 °F 31% 29.84 in 10.0 mi SW 13.8 mph 24.2 mph N/A   Clear
11:15 AM 77.0 °F 42.8 °F 29% 29.85 in 10.0 mi SSW 17.3 mph 23.0 mph N/A   Clear
11:35 AM 77.0 °F 41.0 °F 28% 29.85 in 10.0 mi SW 16.1 mph 24.2 mph N/A   Clear
11:55 AM 77.0 °F 42.8 °F 29% 29.86 in 10.0 mi South 17.3 mph 23.0 mph N/A   Scattered Clouds
12:15 PM 77.0 °F 41.0 °F 28% 29.86 in 10.0 mi SSW 19.6 mph 27.6 mph N/A   Partly Cloudy
12:35 PM 77.0 °F 41.0 °F 28% 29.86 in 10.0 mi South 17.3 mph 25.3 mph N/A   Clear
12:55 PM 77.0 °F 39.2 °F 26% 29.86 in 10.0 mi South 13.8 mph 20.7 mph N/A   Clear
1:15 PM 77.0 °F 39.2 °F 26% 29.86 in 10.0 mi South 17.3 mph 23.0 mph N/A   Clear
1:35 PM 77.0 °F 39.2 °F 26% 29.85 in 10.0 mi South 10.4 mph 17.3 mph N/A   Clear
1:55 PM 78.8 °F 39.2 °F 24% 29.85 in 10.0 mi SW 15.0 mph 20.7 mph N/A   Partly Cloudy
2:15 PM 80.6 °F 39.2 °F 23% 29.85 in 10.0 mi SW 19.6 mph 25.3 mph N/A   Clear
2:35 PM 80.6 °F 41.0 °F 24% 29.84 in 10.0 mi SSW 16.1 mph 23.0 mph N/A   Clear
2:55 PM 80.6 °F 41.0 °F 24% 29.84 in 10.0 mi SSW 17.3 mph 25.3 mph N/A   Clear
3:15 PM 80.6 °F 42.8 °F 26% 29.82 in 10.0 mi South 15.0 mph 21.9 mph N/A   Partly Cloudy
3:35 PM 80.6 °F 46.4 °F 30% 29.82 in 10.0 mi SSW 16.1 mph 23.0 mph N/A   Partly Cloudy
3:55 PM 78.8 °F 46.4 °F 32% 29.81 in 9.0 mi South 17.3 mph 25.3 mph N/A   Partly Cloudy
4:15 PM 80.6 °F 46.4 °F 30% 29.81 in 8.0 mi SSW 12.7 mph 27.6 mph N/A   Partly Cloudy
4:35 PM 80.6 °F 46.4 °F 30% 29.81 in 9.0 mi South 13.8 mph 23.0 mph N/A   Clear
4:55 PM 80.6 °F 46.4 °F 30% 29.80 in 10.0 mi South 18.4 mph 21.9 mph N/A   Clear
5:15 PM 80.6 °F 44.6 °F 28% 29.79 in 9.0 mi South 17.3 mph 23.0 mph N/A   Clear
5:35 PM 80.6 °F 44.6 °F 28% 29.79 in 9.0 mi South 15.0 mph 20.7 mph N/A   Clear
5:55 PM 80.6 °F 44.6 °F 28% 29.79 in 9.0 mi South 15.0 mph 20.7 mph N/A   Scattered Clouds
6:15 PM 78.8 °F 44.6 °F 30% 29.78 in 9.0 mi South 13.8 mph - N/A   Mostly Cloudy
6:35 PM 77.0 °F 44.6 °F 32% 29.78 in 9.0 mi South 12.7 mph 17.3 mph N/A   Mostly Cloudy
6:55 PM 77.0 °F 44.6 °F 32% 29.79 in 9.0 mi SSW 9.2 mph - N/A   Mostly Cloudy
7:15 PM 77.0 °F 44.6 °F 32% 29.79 in 8.0 mi South 8.1 mph - N/A   Mostly Cloudy
7:35 PM 75.2 °F 44.6 °F 34% 29.79 in 6.0 mi SSW 8.1 mph - N/A   Mostly Cloudy
7:55 PM 77.0 °F 39.2 °F 26% 29.80 in 9.0 mi SW 11.5 mph - N/A   Overcast
8:15 PM 75.2 °F 42.8 °F 31% 29.80 in 9.0 mi SSW 18.4 mph 25.3 mph N/A   Overcast
8:35 PM 73.4 °F 44.6 °F 36% 29.81 in 10.0 mi SSW 17.3 mph 20.7 mph N/A   Overcast
8:55 PM 73.4 °F 42.8 °F 33% 29.81 in 10.0 mi SSW 18.4 mph 23.0 mph N/A   Overcast
9:15 PM 73.4 °F 42.8 °F 33% 29.82 in 10.0 mi SSW 18.4 mph - N/A   Overcast
9:35 PM 73.4 °F 42.8 °F 33% 29.82 in 10.0 mi SSW 12.7 mph 19.6 mph N/A   Overcast
9:55 PM 73.4 °F 42.8 °F 33% 29.82 in 10.0 mi SSW 13.8 mph 19.6 mph N/A   Overcast
10:15 PM 71.6 °F 42.8 °F 35% 29.83 in 10.0 mi SSW 15.0 mph 20.7 mph N/A   Overcast
10:35 PM 71.6 °F 41.0 °F 33% 29.83 in 10.0 mi SSW 12.7 mph 19.6 mph N/A   Overcast
10:55 PM 71.6 °F 41.0 °F 33% 29.83 in 10.0 mi SSW 13.8 mph 21.9 mph N/A   Overcast
11:15 PM 71.6 °F 41.0 °F 33% 29.83 in 10.0 mi SW 12.7 mph - N/A   Overcast
11:35 PM 71.6 °F 41.0 °F 33% 29.83 in 10.0 mi SW 15.0 mph 20.7 mph N/A   Overcast
11:55 PM 69.8 °F 39.2 °F 33% 29.84 in 10.0 mi SW 11.5 mph 20.7 mph N/A   Unknown